Regional Weather Roundup
Issued by NWS

Home | Current Version | Previous Version | Text Only | Print | Product List | Glossary On
Versions: 1 2 3 4 5 6 7 8 9 10 11 12 13 14 15 16 17 18 19 20 21 22 23 24 25 26 27 28 29 30 31 32 33 34 35 36 37 38 39 40 41 42 43 44 45 46 47 48 49 50
000
ASUS43 KLOT 240510
RWRIL

ILLINOIS REGIONAL WEATHER ROUNDUP
NATIONAL WEATHER SERVICE CHICAGO/ROMEOVILLE IL
1200 AM CDT THU APR 24 2014

NOTE: "FAIR" INDICATES FEW OR NO CLOUDS BELOW 12,000 FEET WITH NO
SIGNIFICANT WEATHER AND/OR OBSTRUCTIONS TO VISIBILITY.

* THESE STATIONS ARE NOT UNDER NWS QUALITY CONTROL. THEY ALSO MAY NOT
  REPORT WEATHER SUCH AS PRECIPITATION OR FOG.

ILZ001-002-007-009-015-016-024-240600-
NORTHWEST ILLINOIS

CITY           SKY/WX    TMP DP  RH WIND       PRES   REMARKS
MOLINE         CLOUDY    47  39  74 E17       29.93F
STERLING*      CLOUDY    45  34  65 SE14      30.00F
SAVANNA*       CLOUDY    45  35  69 E8        30.00R
$$

ILZ003-004-008-010-011-017-018-240600-
NORTH CENTRAL ILLINOIS

CITY           SKY/WX    TMP DP  RH WIND       PRES   REMARKS
ROCKFORD       CLOUDY    41  32  70 E9        30.06R
FREEPORT*      CLOUDY    38  33  82 E9        30.04R WCI  32
ROCHELLE*      CLOUDY    40  32  71 E8        30.03S
DE KALB*       CLOUDY    38  31  77 E5        30.04R WCI  34
PERU*          CLOUDY    46  33  61 E7        30.00S
$$

ILZ005-006-012>014-019>023-240600-
NORTHEAST ILLINOIS

CITY           SKY/WX    TMP DP  RH WIND       PRES   REMARKS
CHICAGO-OHARE  LGT RAIN  41  26  55 E9        30.03F
CHICAGO-MIDWAY LGT RAIN  41  31  67 E10       30.03F
AURORA         CLOUDY    41  34  76 CALM      30.04R
LANSING*       LGT RAIN  41  32  70 E8        30.02F
JOLIET*        LGT RAIN  40  34  78 CALM      30.04R
WAUKEGAN       LGT RAIN  36  27  69 NE6       30.05S WCI  31
DUPAGE AIRPORT LGT RAIN  40  29  64 E7        30.03R
KANKAKEE*      RAIN      41  37  84 E7        30.03S
WHEELING       CLOUDY    40  27  59 E6        30.05F
MORRIS*        CLOUDY    42  32  69 E7        30.02R
ROMEOVILLE*    DRIZZLE   39  32  75 E3        30.04R
NORTHERLY ISL    N/A     40  30  68 E13         N/A
$$

LMZ740>746-240600-
SOUTHERN LAKE MICHIGAN

STATION/POSITION SKY/WX   TEMP    WIND        PRES    VSBY  WAVE
                          AIR SEA DIR/SP/G                  HT/PER
                          (F)     (DEG/KT/KT) (MB)    (MI)  (FT/S)
WAUKEGAN HARBOR            36      90/  5/ 12 1019.6R
HARRISON CRIB              38     100/ 11/ 13   N/A
BURNHAM HARBOR             40      70/  7/ 12   N/A
CALUMET HARBOR             40      90/  9/ 12 1017.7F
MICHIGAN CITY              42      80/  5/  6   N/A
$$

ILZ025>027-034>036-040-047-049-050-058-095>099-240600-
WEST-CENTRAL ILLINOIS

CITY           SKY/WX    TMP DP  RH WIND       PRES   REMARKS
QUINCY         CLEAR     53  33  46 SE16      29.88F
GALESBURG*     MOCLDY    49  39  70 E13       29.93F
MACOMB*        MOCLDY    52  33  48 SE14      29.94S
JACKSONVILLE*  PTCLDY    52  33  47 SE15      29.95S
PITTSFIELD*    CLEAR     55  32  42 SE14      29.92F
$$

ILZ028>032-037-038-041>044-048-051>054-059>061-240600-
CENTRAL ILLINOIS

CITY           SKY/WX    TMP DP  RH WIND       PRES   REMARKS
PONTIAC        DRIZZLE   45  37  76 E16       29.98F
BLOOMINGTON    CLOUDY    47  40  76 SE12      29.98F
DECATUR        PTCLDY    54  33  45 SE9       29.99F
PEORIA         CLOUDY    53  36  52 E7        29.98R
LACON*         CLOUDY    46  38  75 E8        29.99F
LINCOLN*       MOCLDY    55  32  42 SE9       29.97S
SPRINGFIELD    MOCLDY    55  31  39 SE9       29.98S
TAYLORVILLE    PTCLDY    52  34  50 SE7       29.98R
$$

ILZ033-039-045-046-055>057-062-063-240600-
EAST-CENTRAL ILLINOIS

CITY           SKY/WX    TMP DP  RH WIND       PRES   REMARKS
CHAMPAIGN      MOCLDY    51  38  60 E12       30.00F
RANTOUL*       CLOUDY    53  40  60 CALM      30.02F
MATTOON        MOCLDY    53  31  42 SE10      29.99F
PARIS*         CLOUDY    53  36  52 E6        30.02F
$$

ILZ079-100>102-240600-
SOUTHWEST ILLINOIS

CITY           SKY/WX    TMP DP  RH WIND       PRES   REMARKS
ALTON          CLEAR     52  36  55 E9        29.96S
BELLEVILLE     CLEAR     51  38  62 SE7       29.97S
CAHOKIA*       CLEAR     54  35  48 SE9       29.96S
SPARTA*        CLEAR     52  36  54 E7        29.99R
$$

ILZ064>066-069>071-074>076-080>082-084>086-088>090-092>094-240600-
SOUTH-CENTRAL ILLINOIS

CITY           SKY/WX    TMP DP  RH WIND       PRES   REMARKS
CARBONDALE     CLEAR     50  38  63 E6        29.99R
CAIRO*         CLEAR     57  38  49 E5        29.97S
MARION         CLEAR     50  39  66 E3        29.99S
MT. VERNON     CLEAR     46  34  61 NE3       30.00S
CENTRALIA*     CLEAR     52  34  51 CALM      29.99S
SALEM*         CLEAR     55  37  50 CALM      30.00S
METROPOLIS*    CLEAR     51  36  56 CALM      29.98S
$$

ILZ067-068-072-073-078-083-087-091-240600-
SOUTHEAST ILLINOIS

CITY           SKY/WX    TMP DP  RH WIND       PRES   REMARKS
FLORA*         CLEAR     49  37  64 CALM      30.00F
FAIRFIELD*     CLEAR     55  36  47 CALM      30.00S
HARRISBURG*    CLEAR     53  38  56 CALM      30.00S
ROBINSON*      CLEAR     54  37  52 E8        30.02F
CARMI*         PTCLDY    52  44  73 E6        30.00R
$$

ABBREVIATIONS USED IN REMARKS
   TC - TEMPERATURE IN CELSIUS
  WCI - WIND CHILL INDEX
   HX - HEAT INDEX
  VSB - VISIBILITY
$$




USA.gov is the U.S. government's official web portal to all federal, state and local government web resources and services.